Corona, CA

2:33 AM PDT on April 25, 2018 (GMT -0700)
Corona Municipal

Weather History for KAJO - March, 2014

Change the Weather History Date:

Wednesday, March 26, 2014

  Actual Average (KCNO) Record (KCNO)
Temperature  
Mean Temperature 58 °F -  
Max Temperature 64 °F 68 °F 93 °F (2015)
Min Temperature 52 °F 43 °F 33 °F (1997)
Degree Days  
Heating Degree Days 7    
Growing Degree Days 8 (Base 50)    
Moisture  
Dew Point 49 °F    
Average Humidity 74    
Maximum Humidity 94    
Minimum Humidity 49    
Precipitation  
Precipitation 0.01 in - - ()
Sea Level Pressure  
Sea Level Pressure 29.93 in    
Wind  
Wind Speed 9 mph (WSW)    
Max Wind Speed 16 mph    
Max Gust Speed 24 mph    
Visibility 9 miles    
Events Rain    
Averages and records for this station are not official NWS values.
T = Trace of Precipitation, MM = Missing Value Source: NWS Daily Summary

Daily Weather History Graph

Daily Weather History Graph

Search for Another Location

Airport or City:

Astronomy

Mar. 26, 2014 Rise Set
Actual Time 6:45 AM PDT 7:06 PM PDT
Civil Twilight 6:20 AM PDT 7:31 PM PDT
Nautical Twilight 5:51 AM PDT 8:01 PM PDT
Astronomical Twilight 5:21 AM PDT 8:30 PM PDT
Moon 3:46 AM PDT (3/26) 3:01 PM PDT (3/26)
Length of Visible Light 13h 10m
Length of Day
12h 20m
Waning Crescent, 21% of the Moon is Illuminated
Mar 26
Waning Crescent
Mar 30
New
Apr 7
First Quarter
Apr 15
Full
Apr 22
Last Quarter

Hourly Weather History & Observations

Time (PDT) Temp. Dew Point Humidity Pressure Visibility Wind Dir Wind Speed Gust Speed Precip Events Conditions
12:56 AM 55.9 °F 50.0 °F 80% 29.91 in 10.0 mi WSW 8.1 mph - N/A   Overcast
1:56 AM 56.8 °F 48.9 °F 75% 29.91 in 10.0 mi West 6.9 mph - N/A   Overcast
2:56 AM 56.8 °F 47.8 °F 72% 29.88 in 10.0 mi WSW 5.8 mph - N/A   Overcast
3:56 AM 55.9 °F 48.9 °F 77% 29.88 in 10.0 mi Variable 3.5 mph - N/A   Overcast
4:56 AM 56.8 °F 46.9 °F 69% 29.88 in 10.0 mi WSW 8.1 mph - N/A   Overcast
5:56 AM 54.0 °F 52.0 °F 93% 29.90 in 3.0 mi West 9.2 mph - 0.00 in Rain Light Rain
6:18 AM 53.6 °F 51.8 °F 94% 29.91 in 2.5 mi SW 8.1 mph - 0.00 in Rain Light Rain
6:26 AM 53.6 °F 51.8 °F 94% 29.92 in 8.0 mi WSW 6.9 mph - 0.00 in Rain Light Rain
6:56 AM 52.9 °F 50.9 °F 93% 29.91 in 10.0 mi West 9.2 mph - 0.00 in   Overcast
7:56 AM 54.9 °F 50.0 °F 84% 29.94 in 10.0 mi WSW 8.1 mph - 0.00 in   Overcast
8:56 AM 56.8 °F 48.9 °F 75% 29.95 in 10.0 mi WSW 11.5 mph 18.4 mph N/A   Overcast
9:56 AM 59.0 °F 47.8 °F 66% 29.96 in 10.0 mi WSW 10.4 mph - N/A   Overcast
10:56 AM 56.8 °F 50.9 °F 80% 29.96 in 6.0 mi WNW 6.9 mph - 0.00 in Rain Light Rain
11:56 AM 59.9 °F 50.0 °F 70% 29.96 in 10.0 mi West 10.4 mph - 0.00 in   Overcast
12:56 PM 61.9 °F 48.9 °F 62% 29.95 in 10.0 mi WSW 16.1 mph 20.7 mph N/A   Overcast
1:56 PM 61.9 °F 47.8 °F 60% 29.94 in 10.0 mi WSW 12.7 mph 23.0 mph 0.01 in   Overcast
2:35 PM 64.4 °F 44.6 °F 49% 29.93 in 10.0 mi West 11.5 mph 24.2 mph 0.00 in   Unknown
2:56 PM 63.9 °F 45.9 °F 52% 29.91 in 10.0 mi WSW 12.7 mph 21.9 mph 0.00 in   Unknown
3:56 PM 63.9 °F 45.0 °F 50% 29.91 in 10.0 mi WSW 13.8 mph 24.2 mph N/A   Partly Cloudy
4:56 PM 61.9 °F 45.9 °F 56% 29.92 in 10.0 mi WSW 15.0 mph 20.7 mph N/A   Scattered Clouds
5:56 PM 59.9 °F 46.9 °F 62% 29.94 in 10.0 mi WSW 10.4 mph - N/A   Mostly Cloudy
6:56 PM 59.0 °F 46.9 °F 64% 29.94 in 10.0 mi WSW 11.5 mph 20.7 mph N/A   Mostly Cloudy
7:56 PM 56.8 °F 47.8 °F 72% 29.95 in 10.0 mi West 8.1 mph 18.4 mph N/A   Mostly Cloudy
8:56 PM 55.9 °F 48.9 °F 77% 29.97 in 10.0 mi WSW 12.7 mph 19.6 mph 0.00 in Rain Light Rain
9:11 PM 55.4 °F 51.8 °F 88% 29.98 in 8.0 mi WSW 11.5 mph - 0.00 in Rain Light Rain
9:56 PM 54.9 °F 50.0 °F 84% 29.97 in 10.0 mi WSW 11.5 mph 19.6 mph 0.00 in Rain Light Rain
10:56 PM 54.0 °F 50.0 °F 86% 29.98 in 10.0 mi West 6.9 mph - 0.00 in   Clear
11:56 PM 54.0 °F 48.9 °F 83% 29.98 in 10.0 mi West 3.5 mph - N/A   Clear